{"data":{"norad_id":57896,"intl_designator":"2023-146F","name":"STARLINK-30469","alt_names":[],"object_type":"PAYLOAD","status":"ACTIVE","operator":null,"country":"US","launch_date":"2023-09-20","launch_site_code":"AFETR","launch_vehicle":null,"mission":null,"orbit_class":"UNKNOWN","rcs_meters":null,"size_class":null,"mass_kg":null,"dimensions":null,"purposes":["comms"],"wikipedia_slug":null,"has_3d_model":false,"image_url":null,"decayed_at":null,"tle_current":{"epoch":"2026-05-24T15:35:09.963168Z","epoch_age_seconds":108529,"freshness":"FRESH","line1":"1 57896U 23146F   26144.64942087  .00004681  00000+0  17951-3 0  9992","line2":"2 57896  43.0003 245.1932 0001387 271.3022  88.7671 15.27580384148675","mean_motion":15.27580384,"eccentricity":0.0001387,"inclination_deg":43.0003,"raan_deg":245.1932,"arg_perigee_deg":271.3022,"mean_anomaly_deg":88.7671,"bstar":0.00017951,"rev_number":14867,"period_min":94.266725017071,"perigee_km":482.09629985371,"apogee_km":483.99959255779,"semimajor_km":6861.1849462058,"source":"CELESTRAK","updated_at":"2026-05-25T13:38:18.452431Z"}}}